N120RB EDNY-EGKB

Flight info

Callsign N120RB
Flight time N/A
Altitude 30000
Route ALAGO1E ALAGO Z1 ETAGO DCT LIRSU L608 COA/N0265F180 L179 SASKI L608 SUMUM
Aircraft SF50/L-SDGRWY/L

Departure

Time 2026-05-08 23:24
Airport Bodensee Airport Friedrichshafen (EDNY)

Arrival

Time N/A
Airport London Biggin Hill Airport (EGKB)
Time Latitude Longitude Altitude Speed Heading
2026-05-08 23:19 47.67405 9.52447 1362 ft 0 kts 315°
2026-05-08 23:20 47.67409 9.52441 1362 ft 4 kts 315°
2026-05-08 23:20 47.67404 9.52331 1362 ft 21 kts 234°
2026-05-08 23:20 47.67304 9.52065 1361 ft 35 kts 238°
2026-05-08 23:21 47.67185 9.51759 1358 ft 32 kts 239°
2026-05-08 23:21 47.67082 9.51495 1355 ft 28 kts 241°
2026-05-08 23:21 47.67022 9.51338 1355 ft 25 kts 238°
2026-05-08 23:21 47.66914 9.51062 1347 ft 21 kts 241°
2026-05-08 23:22 47.66846 9.50887 1344 ft 18 kts 239°
2026-05-08 23:22 47.66783 9.50723 1345 ft 19 kts 240°
2026-05-08 23:22 47.66777 9.50606 1346 ft 18 kts 331°
2026-05-08 23:22 47.66900 9.50684 1345 ft 24 kts 33°
2026-05-08 23:23 47.66991 9.50783 1346 ft 0 kts 62°
2026-05-08 23:23 47.67074 9.50997 1349 ft 53 kts 59°
2026-05-08 23:23 47.67346 9.51702 1401 ft 99 kts 59°
2026-05-08 23:23 47.67709 9.52672 1677 ft 115 kts 59°
2026-05-08 23:24 47.68120 9.53845 2050 ft 137 kts 62°
2026-05-08 23:24 47.68580 9.55103 2623 ft 145 kts 57°
2026-05-08 23:24 47.69167 9.56458 3006 ft 165 kts 60°
2026-05-08 23:24 47.69752 9.57946 3619 ft 167 kts 62°
2026-05-08 23:25 47.70480 9.59302 4152 ft 174 kts 36°
2026-05-08 23:25 47.71654 9.59664 4719 ft 179 kts 351°
2026-05-08 23:25 47.72708 9.58722 5257 ft 180 kts 312°
2026-05-08 23:25 47.73526 9.57247 5783 ft 180 kts 310°
2026-05-08 23:26 47.74330 9.55878 6302 ft 180 kts 311°
2026-05-08 23:26 47.75153 9.54474 6787 ft 181 kts 310°
2026-05-08 23:26 47.75980 9.53067 7252 ft 181 kts 310°
2026-05-08 23:26 47.76811 9.51656 7718 ft 182 kts 310°
2026-05-08 23:27 47.77648 9.50239 8173 ft 183 kts 310°
2026-05-08 23:27 47.78488 9.48814 8615 ft 184 kts 310°
2026-05-08 23:27 47.79354 9.47416 9052 ft 185 kts 317°
2026-05-08 23:27 47.80492 9.46514 9491 ft 188 kts 340°
2026-05-08 23:28 47.81804 9.46279 9932 ft 192 kts 359°
2026-05-08 23:28 47.83142 9.46303 10315 ft 193 kts 357°
2026-05-08 23:28 47.84489 9.46279 10716 ft 194 kts 357°
2026-05-08 23:28 47.85843 9.46275 11100 ft 196 kts 357°
2026-05-08 23:29 47.87203 9.46271 11484 ft 197 kts 357°
2026-05-08 23:29 47.88580 9.46269 11875 ft 198 kts 357°
2026-05-08 23:29 47.89960 9.46263 12276 ft 199 kts 357°
2026-05-08 23:29 47.91343 9.46259 12668 ft 200 kts 357°
2026-05-08 23:30 47.92744 9.46258 13061 ft 201 kts 357°
2026-05-08 23:30 47.94149 9.46254 13463 ft 202 kts 357°
2026-05-08 23:30 47.95555 9.46250 13854 ft 204 kts 356°
2026-05-08 23:30 47.96987 9.46246 14215 ft 205 kts 356°
2026-05-08 23:31 47.98422 9.46242 14564 ft 207 kts 356°
2026-05-08 23:31 47.99864 9.46238 14926 ft 208 kts 356°
2026-05-08 23:31 48.01319 9.46235 15290 ft 210 kts 356°
2026-05-08 23:31 48.02765 9.46231 15639 ft 211 kts 356°
2026-05-08 23:32 48.04157 9.46229 15987 ft 213 kts 356°
2026-05-08 23:32 48.05641 9.46226 16343 ft 214 kts 356°
2026-05-08 23:32 48.07137 9.46223 16707 ft 216 kts 356°
2026-05-08 23:32 48.08643 9.46221 17078 ft 217 kts 356°
2026-05-08 23:33 48.10159 9.46218 17451 ft 219 kts 356°
2026-05-08 23:33 48.11687 9.46214 17819 ft 220 kts 356°
2026-05-08 23:33 48.13227 9.46212 18186 ft 222 kts 356°
2026-05-08 23:33 48.14776 9.46209 18542 ft 224 kts 356°
2026-05-08 23:34 48.16337 9.46206 18872 ft 225 kts 356°
2026-05-08 23:34 48.17906 9.46204 19213 ft 226 kts 356°
2026-05-08 23:34 48.19482 9.46206 19553 ft 227 kts 356°
2026-05-08 23:34 48.21064 9.46206 19902 ft 228 kts 355°
2026-05-08 23:35 48.22653 9.46207 20249 ft 229 kts 355°
2026-05-08 23:35 48.24252 9.46208 20605 ft 230 kts 355°
2026-05-08 23:35 48.25854 9.46208 20972 ft 231 kts 355°
2026-05-08 23:35 48.27439 9.46208 21354 ft 230 kts 355°
2026-05-08 23:36 48.29065 9.46210 21754 ft 230 kts 355°
2026-05-08 23:36 48.30640 9.46210 22139 ft 229 kts 355°
2026-05-08 23:36 48.32231 9.46209 22530 ft 228 kts 355°
2026-05-08 23:36 48.33822 9.46211 22905 ft 228 kts 355°
2026-05-08 23:37 48.35407 9.46211 23277 ft 227 kts 355°
2026-05-08 23:37 48.36987 9.46215 23634 ft 227 kts 355°
2026-05-08 23:37 48.38570 9.46216 23966 ft 226 kts 354°
2026-05-08 23:37 48.40141 9.46217 24268 ft 226 kts 354°
2026-05-08 23:38 48.41710 9.46221 24581 ft 225 kts 354°
2026-05-08 23:38 48.43276 9.46221 24880 ft 225 kts 354°
2026-05-08 23:38 48.44838 9.46223 25189 ft 224 kts 354°
2026-05-08 23:38 48.46401 9.46226 25481 ft 224 kts 354°
2026-05-08 23:39 48.47959 9.46227 25782 ft 223 kts 354°
2026-05-08 23:39 48.49511 9.46229 26076 ft 223 kts 354°
2026-05-08 23:39 48.51060 9.46231 26370 ft 223 kts 353°
2026-05-08 23:39 48.52607 9.46232 26657 ft 222 kts 353°
2026-05-08 23:40 48.54151 9.46228 26945 ft 221 kts 353°
2026-05-08 23:40 48.55671 9.46204 27236 ft 220 kts 352°
2026-05-08 23:40 48.57198 9.46184 27520 ft 220 kts 353°
2026-05-08 23:40 48.58737 9.46166 27818 ft 220 kts 353°
2026-05-08 23:41 48.60270 9.46148 28115 ft 220 kts 352°
2026-05-08 23:41 48.61799 9.46130 28406 ft 220 kts 352°
2026-05-08 23:41 48.63324 9.46113 28689 ft 219 kts 352°
2026-05-08 23:41 48.64850 9.46095 28976 ft 218 kts 352°
2026-05-08 23:42 48.66369 9.46077 29257 ft 218 kts 352°
2026-05-08 23:42 48.67888 9.46060 29536 ft 218 kts 352°
2026-05-08 23:42 48.69405 9.46041 29805 ft 218 kts 352°
2026-05-08 23:42 48.70912 9.45955 30062 ft 214 kts 344°
2026-05-08 23:43 48.72331 9.45298 30109 ft 216 kts 328°
2026-05-08 23:43 48.73602 9.44072 30115 ft 219 kts 314°
2026-05-08 23:43 48.74627 9.42348 30112 ft 223 kts 302°
2026-05-08 23:43 48.75588 9.40441 30115 ft 231 kts 304°
2026-05-08 23:44 48.76593 9.38499 30115 ft 238 kts 304°
2026-05-08 23:44 48.77640 9.36463 30112 ft 244 kts 304°
2026-05-08 23:44 48.78690 9.34408 30112 ft 249 kts 304°
2026-05-08 23:44 48.79747 9.32337 30112 ft 253 kts 304°
2026-05-08 23:45 48.80833 9.30214 30111 ft 257 kts 304°
2026-05-08 23:45 48.81936 9.28054 30110 ft 260 kts 304°
2026-05-08 23:45 48.83049 9.25867 30114 ft 263 kts 304°
2026-05-08 23:45 48.84178 9.23652 30113 ft 266 kts 304°
2026-05-08 23:46 48.85314 9.21419 30110 ft 268 kts 304°
2026-05-08 23:46 48.86457 9.19171 30116 ft 271 kts 304°
2026-05-08 23:46 48.87615 9.16892 30114 ft 273 kts 304°
2026-05-08 23:46 48.88778 9.14599 30113 ft 275 kts 305°
2026-05-08 23:47 48.89953 9.12285 30114 ft 278 kts 305°
2026-05-08 23:47 48.91134 9.09952 30112 ft 280 kts 305°
2026-05-08 23:47 48.92324 9.07603 30110 ft 282 kts 305°
2026-05-08 23:47 48.93508 9.05260 30112 ft 283 kts 305°
2026-05-08 23:48 48.94725 9.02850 30112 ft 285 kts 305°
2026-05-08 23:48 48.95919 9.00483 30109 ft 286 kts 305°
2026-05-08 23:48 48.97134 8.98076 30111 ft 288 kts 305°
2026-05-08 23:48 48.98357 8.95647 30113 ft 289 kts 305°
2026-05-08 23:49 48.99585 8.93207 30116 ft 291 kts 306°
2026-05-08 23:49 49.00818 8.90752 30107 ft 292 kts 306°
2026-05-08 23:49 49.02051 8.88304 30105 ft 290 kts 306°
2026-05-08 23:49 49.03274 8.85864 30109 ft 290 kts 306°
2026-05-08 23:50 49.04500 8.83416 30111 ft 291 kts 306°
2026-05-08 23:50 49.05729 8.80966 30111 ft 291 kts 306°
2026-05-08 23:50 49.06956 8.78512 30109 ft 291 kts 306°
2026-05-08 23:50 49.08187 8.76052 30112 ft 291 kts 306°
2026-05-08 23:51 49.09416 8.73592 30108 ft 292 kts 306°
2026-05-08 23:51 49.10645 8.71128 30113 ft 292 kts 306°
2026-05-08 23:51 49.11872 8.68670 30112 ft 292 kts 306°
2026-05-08 23:51 49.13104 8.66196 30111 ft 292 kts 306°
2026-05-08 23:52 49.14334 8.63726 30115 ft 292 kts 306°
2026-05-08 23:52 49.15567 8.61250 30113 ft 293 kts 306°
2026-05-08 23:52 49.16781 8.58808 30119 ft 293 kts 306°
2026-05-08 23:52 49.18012 8.56329 30117 ft 293 kts 306°
2026-05-08 23:53 49.19241 8.53851 30119 ft 293 kts 306°
2026-05-08 23:53 49.20464 8.51382 30119 ft 293 kts 307°
2026-05-08 23:53 49.21704 8.48880 30119 ft 294 kts 307°
2026-05-08 23:53 49.22935 8.46391 30125 ft 294 kts 307°
2026-05-08 23:54 49.24168 8.43897 30123 ft 294 kts 307°
2026-05-08 23:54 49.25400 8.41402 30125 ft 294 kts 307°
2026-05-08 23:54 49.26635 8.38898 30129 ft 294 kts 307°
2026-05-08 23:55 49.29099 8.33897 30126 ft 295 kts 307°
2026-05-08 23:55 49.30332 8.31390 30123 ft 295 kts 307°
2026-05-08 23:55 49.31566 8.28880 30125 ft 295 kts 307°
2026-05-08 23:55 49.32798 8.26372 30128 ft 295 kts 307°
2026-05-08 23:56 49.34030 8.23860 30125 ft 294 kts 307°
2026-05-08 23:56 49.35260 8.21347 30123 ft 295 kts 307°
2026-05-08 23:56 49.36492 8.18831 30123 ft 295 kts 308°
2026-05-08 23:56 49.37722 8.16314 30122 ft 295 kts 308°
2026-05-08 23:57 49.38950 8.13801 30121 ft 295 kts 308°
2026-05-08 23:57 49.40176 8.11291 30123 ft 295 kts 308°
2026-05-08 23:57 49.41410 8.08760 30119 ft 295 kts 308°
2026-05-08 23:57 49.42636 8.06243 30121 ft 294 kts 308°
2026-05-08 23:58 49.43862 8.03722 30111 ft 294 kts 308°
2026-05-08 23:58 49.45071 8.01236 30120 ft 294 kts 308°
2026-05-08 23:58 49.46297 7.98713 30117 ft 294 kts 308°
2026-05-08 23:58 49.47515 7.96201 30113 ft 294 kts 308°
2026-05-08 23:59 49.48743 7.93669 30110 ft 294 kts 308°
2026-05-08 23:59 49.49967 7.91146 30110 ft 294 kts 308°
2026-05-08 23:59 49.51188 7.88620 30110 ft 294 kts 308°
2026-05-08 23:59 49.52407 7.86098 30108 ft 294 kts 308°
2026-05-09 00:00 49.53627 7.83571 30111 ft 294 kts 308°
2026-05-09 00:00 49.54845 7.81051 30108 ft 294 kts 308°
2026-05-09 00:00 49.56062 7.78529 30108 ft 293 kts 308°
2026-05-09 00:00 49.57282 7.75998 30105 ft 293 kts 308°
2026-05-09 00:01 49.58497 7.73471 30109 ft 293 kts 308°
2026-05-09 00:01 49.59711 7.70948 30111 ft 293 kts 308°
2026-05-09 00:01 49.60911 7.68451 30113 ft 293 kts 308°
2026-05-09 00:01 49.62123 7.65927 30109 ft 293 kts 308°
2026-05-09 00:02 49.63333 7.63404 30108 ft 293 kts 308°
2026-05-09 00:02 49.64545 7.60871 30111 ft 293 kts 308°
2026-05-09 00:02 49.65753 7.58348 30115 ft 293 kts 308°
2026-05-09 00:02 49.66960 7.55825 30113 ft 293 kts 308°
2026-05-09 00:03 49.68170 7.53294 30114 ft 292 kts 308°
2026-05-09 00:03 49.69374 7.50770 30119 ft 291 kts 309°
2026-05-09 00:03 49.70575 7.48252 30119 ft 292 kts 309°
2026-05-09 00:03 49.71779 7.45723 30123 ft 292 kts 309°
2026-05-09 00:04 49.72978 7.43204 30122 ft 291 kts 309°
2026-05-09 00:04 49.74161 7.40716 30128 ft 292 kts 309°
2026-05-09 00:04 49.75381 7.38145 30124 ft 291 kts 309°
2026-05-09 00:04 49.76581 7.35618 30128 ft 291 kts 309°
2026-05-09 00:05 49.77777 7.33094 30124 ft 291 kts 309°
2026-05-09 00:05 49.78972 7.30568 30121 ft 291 kts 309°
2026-05-09 00:05 49.80164 7.28047 30126 ft 291 kts 309°
2026-05-09 00:05 49.81359 7.25518 30126 ft 290 kts 309°
2026-05-09 00:06 49.82538 7.23021 30128 ft 290 kts 309°
2026-05-09 00:06 49.83743 7.20466 30119 ft 290 kts 309°
2026-05-09 00:06 49.84947 7.17913 30122 ft 290 kts 309°
2026-05-09 00:06 49.86137 7.15385 30124 ft 290 kts 309°
2026-05-09 00:07 49.86924 7.13711 30120 ft 290 kts 309°
2026-05-09 00:07 49.88510 7.10336 30123 ft 289 kts 309°
2026-05-09 00:07 49.89295 7.08665 30119 ft 289 kts 309°
2026-05-09 00:07 49.90476 7.06147 30118 ft 289 kts 309°
2026-05-09 00:08 49.91657 7.03628 30118 ft 288 kts 309°
2026-05-09 00:08 49.92834 7.01112 30119 ft 288 kts 309°
2026-05-09 00:08 49.94015 6.98591 30117 ft 288 kts 309°
2026-05-09 00:08 49.95193 6.96070 30107 ft 288 kts 309°
2026-05-09 00:09 49.96368 6.93556 30101 ft 288 kts 309°
2026-05-09 00:09 49.97544 6.91035 30103 ft 288 kts 310°
2026-05-09 00:09 49.98719 6.88516 30101 ft 288 kts 310°
2026-05-09 00:09 49.99891 6.86000 30101 ft 287 kts 310°
2026-05-09 00:10 50.01061 6.83486 30099 ft 287 kts 310°
2026-05-09 00:10 50.02206 6.81022 30103 ft 287 kts 310°
2026-05-09 00:10 50.03388 6.78476 30104 ft 287 kts 310°
2026-05-09 00:10 50.04544 6.75984 30104 ft 287 kts 310°
2026-05-09 00:11 50.05711 6.73466 30104 ft 287 kts 310°
2026-05-09 00:11 50.06876 6.70951 30098 ft 287 kts 310°
2026-05-09 00:11 50.08043 6.68433 30106 ft 286 kts 310°
2026-05-09 00:11 50.09206 6.65916 30106 ft 286 kts 310°
2026-05-09 00:12 50.10369 6.63395 30101 ft 287 kts 310°
2026-05-09 00:12 50.11531 6.60878 30102 ft 286 kts 310°
2026-05-09 00:12 50.12691 6.58365 30099 ft 286 kts 310°
2026-05-09 00:12 50.13847 6.55848 30098 ft 286 kts 310°
2026-05-09 00:13 50.15003 6.53331 30097 ft 285 kts 310°
2026-05-09 00:13 50.16155 6.50825 30099 ft 285 kts 310°
2026-05-09 00:13 50.17316 6.48296 30103 ft 285 kts 310°
2026-05-09 00:13 50.18481 6.45848 30104 ft 283 kts 315°
2026-05-09 00:14 50.19895 6.43751 30110 ft 279 kts 325°
2026-05-09 00:14 50.21402 6.41833 30104 ft 279 kts 324°
2026-05-09 00:14 50.22892 6.39892 30111 ft 279 kts 324°
2026-05-09 00:14 50.24383 6.37951 30114 ft 279 kts 324°
2026-05-09 00:15 50.25879 6.36020 30107 ft 278 kts 324°
2026-05-09 00:15 50.27370 6.34090 30107 ft 278 kts 324°
2026-05-09 00:15 50.28862 6.32152 30108 ft 279 kts 324°
2026-05-09 00:15 50.30351 6.30219 30113 ft 279 kts 324°
2026-05-09 00:16 50.31842 6.28280 30117 ft 278 kts 324°
2026-05-09 00:16 50.33332 6.26343 30109 ft 278 kts 324°
2026-05-09 00:16 50.34820 6.24408 30110 ft 278 kts 324°
2026-05-09 00:16 50.36309 6.22468 30112 ft 278 kts 324°
2026-05-09 00:17 50.37797 6.20530 30118 ft 278 kts 325°
2026-05-09 00:17 50.39286 6.18588 30121 ft 278 kts 325°
2026-05-09 00:17 50.40773 6.16646 30117 ft 278 kts 325°
2026-05-09 00:17 50.42258 6.14706 30124 ft 278 kts 324°
2026-05-09 00:18 50.43747 6.12759 30123 ft 279 kts 324°
2026-05-09 00:18 50.45215 6.10838 30118 ft 279 kts 324°
2026-05-09 00:18 50.46703 6.08887 30119 ft 279 kts 324°
2026-05-09 00:18 50.48191 6.06938 30118 ft 279 kts 324°
2026-05-09 00:19 50.49681 6.04985 30124 ft 279 kts 324°
2026-05-09 00:19 50.51168 6.03030 30126 ft 279 kts 324°
2026-05-09 00:19 50.52657 6.01073 30126 ft 279 kts 324°
2026-05-09 00:19 50.54146 5.99115 30119 ft 279 kts 324°
2026-05-09 00:20 50.55637 5.97153 30125 ft 279 kts 324°
2026-05-09 00:20 50.57124 5.95193 30124 ft 279 kts 324°
2026-05-09 00:20 50.57627 5.94530 30122 ft 279 kts 324°
2026-05-09 00:20 50.59599 5.91927 30126 ft 279 kts 324°
2026-05-09 00:21 50.63014 5.87386 30117 ft 280 kts 322°
2026-05-09 00:21 50.64314 5.85012 30122 ft 285 kts 310°
2026-05-09 00:21 50.65300 5.82283 30116 ft 290 kts 300°
2026-05-09 00:22 50.65954 5.79254 30123 ft 294 kts 291°
2026-05-09 00:22 50.66313 5.77203 30121 ft 293 kts 291°
2026-05-09 00:22 50.67071 5.73077 30119 ft 293 kts 292°
2026-05-09 00:22 50.67636 5.69990 30123 ft 293 kts 291°
2026-05-09 00:23 50.68192 5.66903 30124 ft 293 kts 291°
2026-05-09 00:23 50.68804 5.63849 30119 ft 291 kts 294°
2026-05-09 00:23 50.69429 5.60765 30124 ft 292 kts 293°
2026-05-09 00:23 50.70043 5.57713 30121 ft 292 kts 293°
2026-05-09 00:24 50.70649 5.54706 30120 ft 292 kts 293°
2026-05-09 00:24 50.71273 5.51615 30120 ft 291 kts 293°
2026-05-09 00:24 50.71886 5.48565 30121 ft 292 kts 293°
2026-05-09 00:24 50.72498 5.45520 30122 ft 291 kts 293°
2026-05-09 00:25 50.73117 5.42433 30120 ft 291 kts 293°
2026-05-09 00:25 50.73721 5.39421 30119 ft 291 kts 293°
2026-05-09 00:25 50.74330 5.36377 30123 ft 291 kts 293°
2026-05-09 00:25 50.74946 5.33291 30121 ft 291 kts 293°
2026-05-09 00:26 50.75554 5.30243 30124 ft 291 kts 292°
2026-05-09 00:26 50.76168 5.27162 30119 ft 291 kts 292°
2026-05-09 00:26 50.76767 5.24147 30120 ft 290 kts 292°
2026-05-09 00:26 50.77174 5.22093 30122 ft 290 kts 292°
2026-05-09 00:27 50.77980 5.18026 30117 ft 290 kts 292°
2026-05-09 00:27 50.78380 5.16005 30117 ft 290 kts 292°
2026-05-09 00:27 50.79185 5.11934 30117 ft 290 kts 292°
2026-05-09 00:27 50.79380 5.10944 30117 ft 290 kts 292°
2026-05-09 00:28 50.80377 5.05882 30118 ft 290 kts 292°
2026-05-09 00:28 50.81558 4.99778 30116 ft 290 kts 291°
2026-05-09 00:28 50.82135 4.96725 30120 ft 290 kts 291°
2026-05-09 00:29 50.82719 4.93675 30117 ft 290 kts 291°
2026-05-09 00:29 50.83302 4.90624 30117 ft 290 kts 291°
2026-05-09 00:29 50.83685 4.88605 30121 ft 290 kts 291°
2026-05-09 00:29 50.84272 4.85511 30119 ft 289 kts 291°
2026-05-09 00:30 50.85038 4.81466 30120 ft 290 kts 291°
2026-05-09 00:30 50.85617 4.78413 30119 ft 289 kts 291°
2026-05-09 00:30 50.86193 4.75364 30120 ft 290 kts 291°
2026-05-09 00:30 50.86387 4.74334 30122 ft 289 kts 291°
2026-05-09 00:31 50.86574 4.73342 30122 ft 289 kts 291°
2026-05-09 00:31 50.87915 4.66212 30125 ft 289 kts 291°
2026-05-09 00:31 50.88489 4.63155 30125 ft 289 kts 290°
2026-05-09 00:31 50.89063 4.60098 30122 ft 289 kts 290°
2026-05-09 00:32 50.89633 4.57044 30123 ft 289 kts 290°
2026-05-09 00:32 50.90258 4.54024 30122 ft 287 kts 296°
2026-05-09 00:32 50.91214 4.51271 30129 ft 285 kts 305°
2026-05-09 00:32 50.92255 4.48600 30128 ft 285 kts 304°
2026-05-09 00:33 50.93282 4.45903 30128 ft 285 kts 304°
2026-05-09 00:33 50.94312 4.43213 30127 ft 285 kts 304°
2026-05-09 00:33 50.95346 4.40529 30129 ft 285 kts 304°
2026-05-09 00:33 50.96377 4.37843 30131 ft 285 kts 304°
2026-05-09 00:34 50.97408 4.35152 30128 ft 285 kts 304°
2026-05-09 00:34 50.98437 4.32462 30124 ft 285 kts 304°
2026-05-09 00:34 50.99466 4.29770 30121 ft 286 kts 304°
2026-05-09 00:34 51.00496 4.27073 30125 ft 285 kts 303°
2026-05-09 00:35 51.01524 4.24380 30121 ft 285 kts 303°
2026-05-09 00:35 51.02538 4.21718 30122 ft 285 kts 303°
2026-05-09 00:35 51.03566 4.19020 30120 ft 285 kts 303°
2026-05-09 00:35 51.04607 4.16283 30116 ft 286 kts 303°
2026-05-09 00:36 51.05634 4.13580 30119 ft 286 kts 303°
2026-05-09 00:36 51.06659 4.10877 30117 ft 286 kts 303°
2026-05-09 00:36 51.07685 4.08171 30112 ft 286 kts 303°
2026-05-09 00:36 51.08626 4.05687 30111 ft 286 kts 303°
2026-05-09 00:37 51.09665 4.02942 30113 ft 286 kts 303°
2026-05-09 00:37 51.10690 4.00229 30114 ft 286 kts 303°
2026-05-09 00:37 51.11714 3.97513 30111 ft 286 kts 303°
2026-05-09 00:37 51.12738 3.94798 30111 ft 286 kts 303°
2026-05-09 00:38 51.13759 3.92085 30112 ft 286 kts 303°
2026-05-09 00:38 51.14785 3.89359 30108 ft 286 kts 303°
2026-05-09 00:38 51.15806 3.86641 30107 ft 287 kts 303°
2026-05-09 00:38 51.16499 3.84797 30109 ft 286 kts 302°
2026-05-09 00:39 51.17508 3.82107 30109 ft 286 kts 302°
2026-05-09 00:39 51.18528 3.79383 30109 ft 286 kts 302°
2026-05-09 00:39 51.19549 3.76656 30111 ft 286 kts 302°
2026-05-09 00:39 51.20561 3.73948 30115 ft 287 kts 302°
2026-05-09 00:40 51.21368 3.71813 30113 ft 286 kts 302°